Probability
0 0 0 0 0 0 0 0 0 0 0 0 0 0 0 0 0 0 0 0 0 0 0 0 0 0 0 0 0 0 0 0 0 0 0 0 0 0 0 0 0 0 0 0
0 0 0 0 0 0 0 0 0 0 0 0 0 0 0 0 0 0 0 0 0 0 0 0 0 0 0 0 0 0 0 0 0 0 0 0 0 0 0 0 0 0 0 0
0 0 0 0 0 0 0 0 0 0 0 0 0 0 0 0 0 0 0 0 0 0 0 0 0 0 0 0 0 0 0 0 0 0 0 0 0 0 0 0 0 0 0 0
0 0 0 0 0 0 0 0 0 0 0 0 0 0 0 0 0 0 0 0 0 0 0 0 0 0 0 0 0 0 0 0 0 0 0 0 0 0 0 0 0 0 0 0
0 0 0 0 0 0 0 0 0 0 0 0 0 0 0 0 0 0 0 0 0 0 0 0 0 0 0 0 0 0 0 0 0 0 0 0 0 0 0 0 0 0 0 0
0 0 0 0 0 0 0 0 0 0 0 0 0 0 0 0 0 0 0 0 0 0 0 0 0 0 0 0 0 0 0 0 0 0 0 0 0 0 0 0 0 0 0 0
0 0 0 0 0 0 0 0 0 0 0 0 0 0 0 0 0 0 0 0 0 0 0 0 0 0 0 0 0 0 0 0 0 0 0 0 0 0 0 0 0 0 0 0
0 0 0 0 0 0 0 0 0 0 0 0 0 0 0 0 0 0 0 0 0 0 0 0 0 0 0 0 0 0 0 0 0 0 0 0 0 0 0 0 0 0 0 0
0 0 0 0 0 0 0 0 0 0 0 0 0 0 0 0 0 0 0 0 0 0 0 0 0 0 0 0 0 0 0 0 0 0 0 0 0 0 0 0 0 0 0 0
0 0 0 0 0 0 0 0 0 0 0 0 0 0 0 0 0 0 0 0 0 0 0 0 0 0 0 0 0 0 0 0 0 0 0 0 0 0 0 0 0 0 0 0
0 0 0 0 0 0 0 0 0 0 0 0 0 0 0 0 0 0 0 0 0 0 0 0 0 0 0 0 0 0 0 0 0 0 0 0 0 0 0 0 0 0 0 0
0 0 0 0 0 0 0 0 0 0 0 0 0 0 0 0 0 0 0 0 0 0 0 0 0 0 0 0 0 0 0 0 0 0 0 0 0 0 0 0 0 0 0 0
0 0 0 0 0 0 0 0 0 0 0 0 0 0 0 0 0 0 0 0 0 0 0 0 0 0 0 0 0 0 0 0 0 0 0 0 0 0 0 0 0 0 0 0
0 0 0 0 0 0 0 0 0 0 0 0 0 0 0 0 0 0 0 0 0 0 0 0 0 0 0 0 0 0 0 0 0 0 0 0 0 0 0 0 0 0 0 0
0 0 0 0 0 0 0 0 0 0 0 0 0 0 0 0 0 0 0 0 0 0 0 0 0 0 0 0 0 0 0 0 0 0 0 0 0 0 0 0 0 0 0 0
0 0 0 0 0 0 0 0 0 0 0 0 0 0 0 0 0 0 0 0 0 0 0 0 0 0 0 0 0 0 0 0 0 0 0 0 0 0 0 0 0 0 0 0
0 0 0 0 0 0 0 0 0 0 0 0 0 0 0 0 0 0 0 0 0 0 0 0 0 0 0 0 0 0 0 0 0 0 0 0 0 0 0 0 0 0 0 0
0 0 0 0 0 0 0 0 0 0 0 0 0 0 0 0 0 0 0 0 0 0 0 0 0 0 0 0 0 0 0 0 0 0 0 0 0 0 0 0 0 0 0 0
0 0 0 0 0 0 0 0 0 0 0 0 0 0 0 0 0 0 0 0 0 0 0 0 0 0 0 0 0 0 0 0 0 0 0 0 0 0 0 0 0 0 0 0
0 0 0 0 0 0 0 0 0 0 0 0 0 0 0 0 0 0 0 0 0 0 0 0 0 0 0 0 0 0 0 0 0 0 0 0 0 0 0 0 0 0 0 0
0 0 0 0 0 0 0 0 0 0 0 0 0 0 0 0 0 0 0 0 0 0 0 0 0 0 0 0 0 0 0 0 0 0 0 0 0 0 0 0 0 0 0 0
0 0 0 0 0 0 0 0 0 0 0 0 0 0 0 0 0 0 0 0 0 0 0 0 0 0 0 0 0 0 0 0 0 0 0 0 0 0 0 0 0 0 0 0
0 0 0 0 0 0 0 0 0 0 0 0 0 0 0 0 0 0 0 0 0 0 0 0 0 0 0 0 0 0 0 0 0 0 0 0 0 0 0 0 0 0 0 0
0 0 0 0 0 0 0 0 0 0 0 0 0 0 0 0 0 0 0 0 0 0 0 0 0 0 0 0 0 0 0 0 0 0 0 0 0 0 0 0 0 0 0 0
0 0 0 0 0 0 0 0 0 0 0 0 0 0 0 0 0 0 0 0 0 0 0 0 0 0 0 0 0 0 0 0 0 0 0 0 0 0 0 0 0 0 0 0
0 0 0 0 0 0 0 0 0 0 0 0 0 0 0 0 0 0 0 0 0 0 0 0 0 0 0 0 0 0 0 0 0 0 0 0 0 0 0 0 0 0 0 0
0 0 0 0 0 0 0 0 0 0 0 0 0 0 0 0 0 0 0 0 0 0 0 0 0 0 0 0 0 0 0 0 0 0 0 0 0 0 0 0 0 0 0 0
Wind_Speed
10 12 18 23 20 17 17 21 23 26 27 18 15 18 19 22 22 21 12 10 9 5 9 9 8 6 5 5 6 7 5 4 3 3 4 5 6 6 7 8 9 9 10 9
21 9 17 22 21 19 18 16 16 18 13 13 17 16 18 23 23 24 14 5 5 7 9 9 8 6 5 5 4 4 3 3 4 4 5 6 7 8 7 7 8 7 9 8
12 14 17 13 7 10 10 8 7 7 3 8 16 18 14 14 21 25 11 7 11 9 8 7 6 4 5 4 4 4 5 5 4 4 6 6 7 8 7 7 6 6 9 8
7 10 12 10 19 8 8 11 8 9 8 10 12 13 12 5 8 16 13 12 9 6 5 4 4 6 5 5 5 5 5 5 5 5 5 6 7 8 8 7 7 7 8 10
3 6 15 17 12 5 11 17 9 9 10 12 10 11 6 3 2 2 4 6 6 4 1 3 5 5 5 5 5 5 5 5 5 5 5 5 6 7 7 6 6 7 8 9
3 4 11 16 15 5 3 13 6 6 15 12 8 9 9 5 8 10 10 10 9 5 1 3 4 4 5 5 6 6 6 6 5 6 6 5 5 6 6 6 6 6 5 7
8 8 13 16 12 3 8 17 10 13 11 14 12 17 15 9 10 9 7 6 8 7 5 3 3 3 5 6 6 6 6 5 5 6 6 5 5 6 6 5 6 6 6 6
3 5 12 7 9 10 20 21 18 17 18 16 15 18 17 13 9 9 9 10 9 7 6 5 4 3 5 6 6 6 6 5 5 6 6 6 5 5 5 5 5 5 5 4
10 13 18 22 23 23 20 20 22 21 17 11 15 16 12 9 6 11 9 8 8 8 7 6 4 3 4 4 5 5 5 5 5 5 5 6 5 5 4 4 4 4 4 4
17 24 24 22 25 22 20 21 21 19 18 18 15 13 10 7 5 8 9 9 8 8 7 5 5 5 4 4 5 5 4 4 5 5 6 6 5 4 4 4 4 4 5 5
16 24 27 23 22 25 25 24 22 23 23 18 9 8 6 4 3 6 7 7 7 6 6 4 5 5 4 5 5 4 3 4 4 4 5 4 4 4 4 4 4 4 3 4
17 22 26 30 29 26 23 21 22 23 21 18 16 16 11 4 8 7 8 7 7 7 5 4 4 4 4 5 4 4 4 4 4 3 3 3 3 5 8 9 11 11 10 8
17 21 25 29 25 25 24 26 27 24 19 15 12 10 5 10 8 9 9 8 7 6 4 4 4 5 6 5 5 4 4 4 4 4 3 4 4 5 6 8 10 11 13 13
18 20 22 21 26 28 27 25 23 15 7 3 1 7 11 11 11 10 8 7 6 5 4 5 5 6 6 5 5 5 4 4 3 3 4 4 4 4 5 6 7 8 11 13
12 16 20 23 24 22 22 16 9 5 7 10 10 11 12 12 11 9 7 6 5 6 5 5 5 5 5 5 5 5 4 4 2 2 4 5 5 5 5 5 6 6 7 8
14 15 15 16 18 19 19 13 6 5 8 10 12 13 13 12 10 9 7 5 5 5 5 4 4 4 4 4 4 3 4 7 6 4 5 5 5 5 5 5 6 6 6 6
12 13 17 17 15 15 16 17 14 12 12 13 12 11 11 10 9 8 7 6 6 5 4 4 4 5 5 4 4 3 3 5 8 5 4 4 4 4 4 4 5 6 6 8
8 8 9 11 11 12 13 14 14 13 12 11 10 10 9 8 7 6 4 4 4 4 4 5 5 2 4 5 5 3 3 4 4 4 5 5 5 3 4 4 5 7 6 9
6 6 7 9 9 9 10 10 10 10 10 10 10 10 8 7 5 4 4 4 4 4 5 7 8 5 6 9 8 2 3 4 5 5 5 7 6 5 5 6 6 7 7 8
4 5 6 7 8 9 8 8 9 9 9 8 8 8 7 6 5 4 5 4 3 4 6 7 6 6 6 9 9 4 4 4 5 5 6 6 6 7 7 8 9 8 8 8
3 3 4 5 7 9 9 8 8 8 8 8 7 5 4 4 5 4 4 3 5 7 6 9 7 7 6 5 5 4 4 5 5 5 6 6 7 7 7 8 9 9 8 8
2 2 4 5 6 7 7 7 6 6 6 6 6 5 5 5 4 2 1 3 6 8 6 5 7 8 9 9 5 5 6 6 6 6 6 7 7 8 8 9 9 9 9 9
3 3 4 5 5 4 4 5 5 5 5 6 5 5 4 4 4 4 5 6 6 7 6 7 11 14 15 8 5 6 6 7 7 7 7 7 8 8 9 10 11 10 10 10
4 4 4 4 4 5 4 3 4 4 4 4 4 4 4 3 3 4 4 8 11 10 8 9 13 16 12 6 5 6 6 7 7 7 8 9 8 9 9 11 11 11 12 14
4 4 4 5 5 3 2 1 2 3 3 3 4 4 3 3 3 4 4 5 10 9 7 11 15 14 8 6 6 6 7 7 8 8 8 8 9 10 10 11 12 14 14 12
4 3 4 4 3 2 1 1 1 2 2 2 3 4 4 4 4 4 4 6 7 8 7 6 8 8 6 6 7 7 7 8 8 9 9 9 9 10 10 11 13 14 13 13
4 4 3 2 1 1 2 3 2 2 3 3 2 4 4 4 5 6 6 6 6 6 6 6 7 8 7 7 7 7 7 8 9 10 8 8 8 9 10 12 11 12 13 11
Wind_Direction
278 294 296 294 300 295 282 274 273 278 283 306 344 337 324 315 311 294 271 282 288 169 135 114 98 85 75 73 65 61 64 62 38 13 354 341 332 337 335 329 330 333 324 320
300 288 286 293 294 291 284 288 294 293 297 352 331 324 337 336 332 319 294 344 18 118 114 106 100 87 74 66 67 74 71 50 24 14 3 354 343 346 337 321 321 327 318 324
284 304 303 291 294 310 308 306 290 270 240 324 323 316 322 329 328 318 313 92 87 67 62 65 66 91 98 81 53 46 35 24 14 1 5 355 348 344 330 319 323 337 335 352
286 310 282 311 318 287 274 283 239 233 259 286 287 283 284 305 6 351 10 30 39 79 99 105 102 75 59 54 48 44 23 5 1 4 350 355 354 344 338 341 349 357 5 14
249 263 291 303 282 291 310 294 232 226 270 278 271 281 274 226 142 151 72 45 20 3 13 73 63 71 76 62 53 41 14 354 348 346 331 348 356 343 344 350 8 10 17 20
252 270 272 265 283 299 284 278 221 246 306 295 275 286 293 210 216 218 196 174 169 158 108 53 59 66 72 57 39 20 356 341 344 344 326 338 6 354 350 6 16 6 9 25
262 251 256 264 286 324 274 285 304 299 291 296 271 269 282 278 240 203 186 163 147 138 121 76 34 67 74 52 24 350 340 343 348 344 329 2 19 14 4 13 14 9 7 7
248 257 270 268 313 281 287 299 297 292 292 288 279 277 274 270 246 179 166 158 152 138 115 77 33 43 64 44 4 345 348 356 351 345 347 6 22 16 13 7 9 4 352 345
240 251 272 290 291 287 289 288 288 285 284 276 285 269 261 266 203 171 156 147 140 131 113 100 77 44 57 25 359 353 360 356 351 353 8 6 7 11 6 3 349 345 340 337
281 276 280 290 291 290 287 286 285 283 278 284 274 260 281 284 176 159 147 140 134 130 123 112 86 58 27 24 5 1 5 355 2 10 20 10 4 2 4 355 339 342 342 336
267 284 293 288 290 295 300 305 300 292 286 277 255 264 269 290 176 134 110 103 116 116 104 102 86 59 16 23 16 2 7 5 13 27 19 4 356 354 358 343 343 342 322 318
283 294 297 296 302 316 317 308 297 285 277 272 272 275 280 100 107 112 110 105 99 96 105 104 81 54 20 19 16 11 18 18 11 24 6 2 353 353 359 358 357 357 346 336
282 286 292 302 314 315 309 305 299 293 278 263 260 261 184 120 112 106 99 100 100 104 112 92 71 48 20 12 15 25 9 28 13 7 355 1 1 357 344 345 352 352 347 340
290 306 313 312 309 306 304 301 306 322 323 261 101 90 102 102 100 93 90 95 101 99 83 74 68 45 22 13 21 15 354 7 16 356 346 349 350 346 338 334 335 338 341 337
305 312 304 303 305 310 308 303 317 353 42 62 71 81 88 90 90 91 97 102 96 81 66 62 59 40 26 19 18 5 348 335 348 353 336 340 339 331 328 328 325 323 323 326
308 302 309 316 322 333 339 336 336 57 70 70 70 72 79 85 87 85 80 71 73 68 57 50 39 28 16 9 352 342 337 338 340 343 331 331 325 321 319 316 315 316 318 320
310 324 334 338 342 353 3 15 36 56 65 71 74 78 81 84 84 78 72 71 76 68 44 19 4 3 345 323 303 302 315 323 329 321 303 297 291 285 280 282 294 306 306 309
302 323 341 346 356 8 16 26 39 51 60 71 78 83 83 83 84 84 86 85 68 48 21 349 327 326 316 309 291 271 294 301 302 301 300 298 294 286 286 286 291 300 303 307
339 360 9 15 14 23 28 30 36 45 51 60 66 65 63 62 62 60 63 62 46 24 340 325 332 343 316 321 328 349 304 302 304 300 297 303 313 308 298 298 299 296 296 303
6 10 23 26 20 24 32 36 44 48 46 55 66 66 58 43 40 47 53 39 347 295 305 333 340 312 304 316 335 347 319 309 307 309 310 314 309 305 306 302 300 299 298 296
26 21 32 40 37 36 35 33 45 47 40 49 62 64 55 31 26 39 46 11 322 321 348 344 324 306 315 353 357 334 319 319 320 314 310 309 307 302 294 289 290 290 287 282
69 56 60 65 62 48 29 26 39 45 46 48 50 47 44 30 21 17 342 298 306 337 3 327 308 328 19 18 357 338 332 329 324 319 311 305 299 295 294 295 293 290 286 283
90 90 87 82 81 69 41 33 39 48 45 39 36 32 37 24 10 1 345 332 326 358 2 322 332 1 22 7 339 332 331 328 322 312 305 300 297 296 296 297 297 296 293 287
118 110 102 92 87 84 67 27 33 42 39 32 24 14 9 355 352 352 327 337 351 13 359 342 354 11 14 346 334 334 331 325 316 312 312 312 308 306 306 303 300 294 289 285
120 116 115 110 109 120 131 23 24 27 33 15 359 351 347 341 337 336 333 347 358 13 356 354 2 11 1 338 341 338 330 324 323 325 317 318 319 317 313 310 308 308 307 301
134 142 145 153 163 165 164 104 70 66 67 34 8 352 344 339 346 359 354 8 1 4 358 350 352 359 348 344 346 333 324 323 326 328 331 327 321 321 322 324 327 324 319 313
131 135 123 100 77 121 134 108 84 53 43 38 12 355 355 356 3 10 8 6 1 357 352 347 347 353 353 346 338 330 327 329 335 340 335 324 320 321 325 326 331 335 336 342